MIDAS 5 DEB, 274

Orbit data source: Space-Track

MIDAS 5 DEB, 274 is space debris in LEO originally from a launch on Mon, 09 Apr 1962 UTC launched from the Air Force Western Test Range (AFWTR). Debris objects in space refer to the collection of defunct objects orbiting the Earth. Examples of debris include non-operational satellites, rocket bodies, and fragments generated from explosions, collisions, or faulty payload assembly.

Loading next visibility...
MIDAS 5 DEB details
Identifier
274, 1962-010D
Orbit
LEO
Last TLE update1 day ago
Origin
Flag of USUSAF SSD (US)
ManufacturerUnknown
MissionSpacecraft
Bus & MotorUnknown
Mass~10 kg wet, ~10 kg dry
Launch date (UTC)
1962-04-09 (63 years ago)
Launch vehicleUnknown
Launch site
Air Force Western Test Range (AFWTR)
Object type
Payload
Rocket body
Debris
Shape & HBRUnknown
Radar Cross SectionMedium (>0.1 m² and <1 m²)

Expand to show TLE details & history

TLE from 1 day ago
0 MIDAS 5 DEB
1 00274U 62010D   25013.05190581 -.00000001  00000-0 -13340-2 0  9998
2 00274  86.6550  48.8609 0354500  84.6376 279.4858  9.39391780151943
Epoch: 2025-01-13T01:14Z
Definitive object data (Epoch: 2025-01-13T01:14:44.661Z)
Latitude-0.00006°
Longitude-82.60369°
Altitude3,068.338 km
Speed6.512 km/s
True Right ascension03h 15m 26s
True Declination0° 00' 00"
Sunlit
Object was in daylight at TLE epoch
Visualization TLE readout
Latitude62.02949°
Longitude90.91446°
Altitude2,840.396 km
Speed6.678 km/s
Apparent Right ascension18h 19m 47s
Apparent Declination33° 28' 39"
Sunlit
Object is in daylight
Visualization observer readout
Local Sidereal Time09:18:11
Azimuth36.065° NE
Elevation-5.83°
Doppler factor1
Orbital elements
Apogee altitude3,443.745 km
Perigee altitude2,771.215 km
Semi-major axis9,485.617 km
Eccentricity0.03545
Inclination86.655°
RAAN48.8609°
Arg. of periapsis84.6376°
True anomaly275.45294°
Mean anomaly279.4858°
Eccentric anomaly277.47191°
Mean motion2.34933 °/min
BSTAR-0.001334
Orbital period153.23 mins
Loading maneuver chart data...
Loading historical data...
Loading historical data...
Loading historical data...
Loading historical data...
Loading historical data...
Loading historical data...
Loading historical data...

MIDAS 5 DEB Visibility forecast

Observer location: undefined°, undefined

Span
Click to sort rows by Start time (UTC) header in descending order
Start Az.
Max El. time (UTC)
Max El. Az.
Max El.
End time (UTC)
End Az.
14 mins2025-01-14 11:13:22.615Z25.9° NE2025-01-14 11:20:22.615Z56.068° ENE14.635°2025-01-14 11:27:22.615Z85.504° E
29 mins2025-01-14 13:44:22.615Z1.026° NNE2025-01-14 13:58:22.615Z96.301° ESE43.649°2025-01-14 14:13:22.615Z170.143° S
22 mins2025-01-14 16:19:22.615Z339.542° N2025-01-14 16:29:22.615Z292.333° WNW26.507°2025-01-14 16:41:22.615Z238.325° WSW
6 mins2025-01-14 23:33:22.615Z65.683° ENE2025-01-14 23:35:22.615Z57.218° ENE11.505°2025-01-14 23:39:22.615Z40.329° NE
27 mins2025-01-15 01:51:22.615Z159.369° S2025-01-15 02:05:22.615Z75.436° E42.116°2025-01-15 02:18:22.615Z7.708° NNE
24 mins2025-01-15 04:27:22.615Z230.109° WSW2025-01-15 04:39:22.615Z287.886° WNW29.15°2025-01-15 04:51:22.615Z348.396° N
|